This is the latest recevied weather packets stored in our database for station/object KC5DAQ-29. If no packets are shown the sender has not sent any weather packets the latest 1 day(s).
| Time | Temp. | Humidity | Pressure | Rain* | Wind** | Luminosity | Snow |
|---|---|---|---|---|---|---|---|
| 1778102993 | 29.44° C | 100% | 1005.6 hPa | 0 mm | - | 710 W/m² | - |
| 1778102755 | 29.44° C | 100% | 1005.6 hPa | 0 mm | - | 411 W/m² | - |
| 1778102694 | 29.44° C | 100% | 1005.7 hPa | 0 mm | - | 411 W/m² | - |
| 1778102514 | 29.44° C | 100% | 1005.6 hPa | 0 mm | - | 635 W/m² | - |
| 1778102214 | 28.89° C | 100% | 1005.6 hPa | 0 mm | - | 754 W/m² | - |
| 1778102026 | 28.89° C | 100% | 1005.7 hPa | 0 mm | - | 385 W/m² | - |
| 1778101142 | 28.33° C | 100% | 1005.9 hPa | 0 mm | - | 236 W/m² | - |
| 1778100784 | 28.33° C | 100% | 1005.9 hPa | 0 mm | - | 343 W/m² | - |
| 1778100484 | 28.33° C | 100% | 1005.9 hPa | 0 mm | - | 218 W/m² | - |
| 1778100363 | 28.33° C | 100% | 1006 hPa | 0 mm | - | 253 W/m² | - |
| 1778100302 | 28.33° C | 100% | 1006 hPa | 0 mm | - | 253 W/m² | - |
| 1778100184 | 28.89° C | 100% | 1006 hPa | 0 mm | - | 253 W/m² | - |
| 1778099703 | 28.89° C | 100% | 1006.1 hPa | 0 mm | - | 283 W/m² | - |
| 1778099523 | 28.89° C | 100% | 1006.1 hPa | 0 mm | - | 244 W/m² | - |
| 1778099463 | 28.89° C | 100% | 1006.1 hPa | 0 mm | - | 223 W/m² | - |
| 1778099342 | 29.44° C | 100% | 1006.1 hPa | 0 mm | - | 234 W/m² | - |
| 1778098982 | 29.44° C | 100% | 1006.1 hPa | 0 mm | - | 292 W/m² | - |
| 1778098743 | 29.44° C | 100% | 1006 hPa | 0 mm | - | 394 W/m² | - |
| 1778097964 | 30° C | 100% | 1006 hPa | 0 mm | - | 519 W/m² | - |
| 1778097844 | 30° C | 100% | 1006 hPa | 0 mm | - | 519 W/m² | - |
| 1778097664 | 30° C | 100% | 1006.1 hPa | 0 mm | - | 519 W/m² | - |
| 1778097542 | 30° C | 100% | 1006 hPa | 0 mm | - | 519 W/m² | - |
| 1778097363 | 30° C | 100% | 1006.1 hPa | 0 mm | - | 582 W/m² | - |
| 1778097122 | 29.44° C | 100% | 1006.1 hPa | 0 mm | - | 747 W/m² | - |
| 1778096942 | 28.89° C | 100% | 1006.2 hPa | 0 mm | - | 747 W/m² | - |
* Rain latest hour (hover to see other rain measurements)
** Current wind speed in m/s (hover to see current wind gust speed)